Location: Freemans Gardens
(41.6414°N, 83.6077°W)
Time: 02:47:47
(UTC+00:00)

Cosmos 1689 Rocket - Pass Details

Date: 29 October 2020
Orbit: 360 x 375 km, 97.5° (Epoch: 26 November)

Event Time Altitude Azimuth Distance (km) Brightness Sun altitude
Rises 22:55:57 0° 31° (NNE) 2,204 5.5 -5.1°
Reaches altitude 10° 22:58:25 10° 55° (NE) 1,350 4.2 -5.6°
Maximum altitude 23:00:16 16° 95° (E) 1,064 3.7 -5.9°
Drops below altitude 10° 23:02:06 10° 135° (SE) 1,341 4.5 -6.2°
Sets 23:04:33 0° 159° (SSE) 2,182 5.8 -6.7°
